SCP
0 0 0 0 0 0 0 0 0 0 0 0 0 0 -0 -0 0 0 -0 -0 -0 -0 0 0 -0 0 -0 -0 -0 -0 -0 -0 -0 0 0 0 0 0 0 0 0 0 0 -0 -0 -0 -0 -0 -0
0 0 0 0 0 0 0 0 0 0 0 0 0 0 0 0 0 0 0 -0 -0 -0 -0 -0 -0 0 -0 -0 -0 -0 -0 -0 0 0 0 0 0 0 0 0 0 0 0 -0 -0 -0 -0 0 0
0 0 0 0 0 0 0 0 0 0 0 0 0 0 0 0 0 0 -0 -0 -0 -0 -0 -0 -0 -0 0 0 -0 0 0 0 0 0 0 0 0 0 0 0 0 0 0 0 0 -0 0 0 0
0 0 0 0 0 0 0 0 0 0 0 0 0 0 0 0 0 0 -0 -0 -0 -0 -0 -0 -0 -0 -0 -0 0 0 0 0 0 0 0 0 0 0 0 0 0 0 0 0 0 0 0 0 0
0 0 0 0 0 0 0 0 0 0 0 0 0 0 0 0 0 0 -0 -0 -0 -0 -0 -0 -0 -0 -0 -0 -0 0 0 0 0 0 0 0 0 0 0 0 0 0 0 0 0 0 0 0 0
0 0 0 0 0 0 0 0 0 0 0 0 0 0 0 0 0 0 0 0 -0 0 -0 -0 -0 -0 -0 -0 -0 -0 0 0 0 0 0 0 0 0 0 0 0 0 0 0 0 0 0 0 0
0 0 0 0 0 0 0 0 0 0 0 0 0 0 0 0 0 0 0 0 0 0 0 -0 -0 -0 -0 -0 -0 -0 -0 -0 0 0 0 0 0 0 0 0 0 0 0 0 0 0 0 0 0
0 0 0 0 0 0 0 0 0 0 0 0 0 0 0 0 0 0 0 0 0 0 0 0 0 0 0 0 -0 -0 -0 -0 -0 -0 0 0 0 0 0 0 -0 0 0 0 0 0 0 0 0
0 0 0 0 0 0 0 0 0 0 0 0 0 0 0 0 0 0 0 0 0 0 0 0 0 0 0 0 0 -0 -0 -0 -0 -0 -0 0 0 0 0 0 0 0 0 0 0 0 0 0 0
0 0 0 0 0 0 0 0 0 0 0 0 0 0 0 0 0 0 0 0 0 0 0 0 0 0 0 0 0 0 0 0 0 0 0 0 0 0 0 0 0 0 0 0 0 0 0 0 0
0 0 0 0 0 0 0 -0 0 0 0 0 0 0 0 0 0 0 0 0 0 0 0 0 0 0 0 0 0 0 0 0 0 0 0 0 0 0 0 0 0 0 0 0 0 0 0 0 0
0 0 0 0 0 0 0 0 0 0 0 0 0 0 0 0 0 0 0 0 0 0 0 0 0 0 0 0 0 0 0 0 0 0 0 0 0 0 0 0 0 0 0 0 0 0 0 0 0
0 0 0 0 0 0 0 0 0 0 0 0 0 0 0 0 0 0 0 0 0 0 0 0 0 0 0 0 -0 0 0 0 0 0 0 0 0 0 0 0 0 0 0 0 0 0 0 0 0
0 0 0 0 -0 0 0 0 0 0 0 0 0 0 0 0 0 0 0 0 0 0 0 0 0 0 0 0 0 0 0 0 0 0 0 0 0 0 0 0 0 0 0 0 0 0 0 0 0
0 0 -0 -0 0 0 0 0 0 0 0 0 0 0 0 0 0 0 0 0 0 0 0 0 0 0 0 0 0 0 0 0 0 0 0 0 0 0 0 0 0 0 0 0 0 0 0 0 0
0 0 0 -0 0 0 0 0 0 0 0 0 0 0 0 0 0 0 0 0 0 0 0 0 0 0 0 0 0 0 0 0 0 0 0 0 0 0 0 0 0 0 0 0 0 0 0 0 0
0 0 0 0 0 0 0 0 0 0 0 0 0 0 0 0 0 0 0 0 0 0 0 0 0 0 0 0 0 0 0 0 0 0 0 0 0 0 0 0 0 0 0 0 0 0 0 0 0
-0 -0 0 0 0 -0 -0 -0 0 0 0 0 0 0 0 0 0 0 0 0 -0 -0 0 0 0 0 0 0 0 0 0 0 0 0 0 0 0 0 0 0 0 0 0 0 0 0 0 0 0
-0 -0 -0 -0 0 -0 0 0 0 0 0 0 0 0 0 0 0 -0 -0 -0 -0 -0 -0 0 0 0 0 0 0 0 0 0 0 0 0 0 0 0 0 0 0 0 0 0 0 0 0 0 0
-0 -0 -0 -0 0 -0 0 -0 -0 -0 0 0 0 0 0 0 0 -0 -0 -0 -0 -0 -0 -0 -0 -0 -0 -0 -0 -0 -0 -0 -0 -0 -0 0 0 0 0 0 0 0 0 0 0 0 0 0 0
-0 0 0 0 0 -0 0 0 0 0 -0 -0 -0 -0 -0 -0 -0 0 -0 -0 -0 -0 -0 -0 -0 -0 -0 -0 -0 -0 -0 -0 0 0 0 -0 -0 -0 -0 -0 -0 -0 -0 0 0 0 0 0 0
-0 -0 0 -0 -0 -0 -0 -0 0 0 0 -0 -0 -0 -0 -0 -0 -0 -0 -0 -0 -0 -0 -0 -0 -0 -0 -0 -0 -0 -0 -0 -0 -0 -0 -0 -0 -0 -0 -0 -0 -0 -0 -0 0 0 0 0 0
-0 -0 0 -0 0 -0 -0 -0 0 -0 0 0 -0 -0 0 0 -0 -0 -0 -0 -0 -0 -0 -0 -0 -0 -0 -0 -0 -0 -0 -0 -0 -0 -0 -0 -0 -0 -0 -0 -0 -0 -0 -0 0 0 0 0 0
0 0 0 0 0 -0 0 -0 0 -0 -0 -0 0 0 0 0 0 0 -0 -0 -0 -0 -0 -0 -0 -0 -0 -0 -0 -0 -0 -0 -0 -0 -0 -0 -0 -0 -0 -0 -0 -0 -0 -0 -0 0 0 0 0
0 0 0 0 0 0 0 0 0 0 -0 -0 0 0 0 0 0 0 -0 -0 -0 -0 -0 -0 -0 -0 -0 -0 -0 -0 -0 -0 -0 -0 -0 -0 -0 -0 -0 -0 -0 -0 0 0 -0 -0 -0 0 0
0 0 0 0 0 0 0 0 0 0 0 0 0 0 0 0 0 0 -0 -0 -0 0 0 0 0 -0 -0 -0 -0 -0 -0 -0 -0 -0 -0 -0 -0 -0 -0 -0 -0 -0 -0 -0 0 0 0 0 0
0 0 0 0 0 0 0 0 0 0 0 0 0 0 0 0 0 0 0 0 0 0 0 0 0 0 0 0 0 0 -0 -0 -0 -0 -0 -0 -0 -0 -0 -0 -0 -0 -0 -0 0 0 0 0 0
0 0 0 0 0 0 0 0 0 0 0 0 0 0 0 0 0 0 0 0 0 0 0 0 0 0 0 0 0 0 0 0 0 0 -0 -0 -0 -0 -0 -0 -0 -0 -0 -0 0 0 0 0 0
0 0 0 0 0 0 0 0 0 0 0 0 0 0 0 0 0 0 0 0 0 0 0 0 0 0 0 0 0 0 0 0 0 0 0 0 -0 -0 -0 -0 -0 -0 -0 0 0 0 0 0 0
0 0 0 0 0 0 0 0 0 0 0 0 0 0 0 0 0 0 0 0 0 0 0 0 0 0 0 0 0 0 0 0 0 0 0 0 0 0 0 0 0 0 0 0 0 0 0 0 0
Wind_Speed_500mb
12 8 5 2 9 2 8 11 6 14 10 30 34 33 36 41 12 9 27 35 1 13 7 8 8 7 6 5 7 7 7 5 5 6 7 9 8 7 5 6 9 13 7 9 7 9 6 10 12
4 6 8 4 9 13 9 12 16 17 21 15 28 27 36 14 37 22 22 26 19 13 5 14 13 5 8 7 8 7 5 4 4 7 10 13 12 6 1 4 10 12 10 4 4 9 10 13 12
12 12 12 8 6 11 9 16 21 21 24 11 15 33 16 27 34 32 33 24 14 16 12 15 17 17 7 5 8 7 3 3 4 6 10 12 14 15 9 4 12 20 19 12 8 8 14 15 12
8 11 18 14 20 22 12 21 30 24 9 37 13 27 22 36 33 37 32 22 23 11 14 9 14 17 17 12 1 2 0 3 6 9 12 13 13 13 12 7 5 19 26 19 12 16 17 17 15
12 16 11 12 22 16 25 35 39 31 12 39 11 14 15 46 31 28 30 34 34 16 14 14 14 11 12 12 9 3 5 4 5 9 12 16 17 16 14 11 8 5 9 26 16 17 16 17 17
14 10 9 10 14 20 22 45 32 37 39 26 24 22 20 39 37 50 44 50 36 23 13 13 14 12 12 9 7 5 2 10 11 13 15 15 14 13 13 14 11 8 7 5 5 10 15 18 19
13 6 9 27 21 9 20 12 40 37 37 39 19 15 16 52 41 56 55 57 53 34 17 10 8 11 10 9 8 7 4 2 7 16 18 20 19 17 15 13 10 9 9 9 10 13 17 18 20
15 9 18 10 19 10 21 31 46 35 46 21 16 23 15 41 46 60 65 66 65 52 24 9 10 3 5 8 9 9 8 8 6 4 9 14 18 20 19 17 15 14 13 12 13 15 17 18 18
8 7 9 11 13 18 22 31 47 53 73 76 48 45 31 45 55 61 76 72 66 64 48 37 22 9 6 3 8 14 14 12 14 13 12 6 14 17 19 21 22 21 21 20 20 21 22 22 21
18 9 9 27 31 29 46 33 32 28 45 54 53 49 45 63 66 83 86 86 82 74 69 58 47 42 30 17 8 3 10 16 19 21 21 17 14 16 17 21 23 27 29 29 28 28 28 27 27
20 11 47 54 61 59 56 75 26 10 28 39 39 38 42 59 73 77 84 81 81 73 66 68 60 45 44 35 34 27 7 7 8 14 22 23 21 22 24 23 21 28 29 33 35 35 35 36 35
21 48 26 34 42 36 44 41 61 55 33 31 33 35 49 68 75 81 83 73 71 64 70 65 62 59 54 41 46 46 40 30 28 7 21 21 17 29 30 33 35 30 32 37 35 36 42 44 44
35 43 55 66 70 66 67 60 41 52 39 35 46 49 50 50 69 76 71 73 70 70 63 62 58 58 58 56 53 49 47 52 40 26 27 25 25 22 26 28 39 42 45 44 42 41 45 46 49
37 52 40 56 57 39 51 35 14 29 32 28 34 48 57 64 66 66 72 72 72 67 67 63 58 55 44 46 43 46 46 48 47 49 47 34 27 23 25 26 20 27 41 49 53 54 52 51 48
44 36 44 32 4 11 3 44 24 16 15 26 33 37 47 54 59 67 65 68 66 67 65 63 58 56 56 52 46 43 45 44 43 44 45 44 44 41 33 28 28 25 23 38 52 58 62 62 63
6 8 10 30 7 13 3 12 16 13 21 28 30 33 40 45 50 60 62 63 62 62 63 58 59 58 57 56 55 53 51 51 50 49 46 43 40 39 37 35 36 37 32 30 28 38 47 55 60
15 14 18 12 24 8 9 17 7 11 19 25 27 30 34 37 47 56 59 60 61 60 59 60 59 58 58 58 60 59 59 60 59 56 54 51 48 46 43 41 40 39 38 38 35 35 34 40 57
9 13 20 19 23 37 37 27 16 14 19 20 20 23 28 32 37 44 49 52 53 54 56 57 59 59 60 61 61 61 61 63 62 61 61 59 59 57 53 49 45 43 43 42 42 40 39 38 43
23 28 27 14 4 21 26 24 15 11 15 15 15 20 25 30 32 38 42 43 45 49 52 56 57 60 61 64 65 64 63 61 60 61 61 60 60 59 59 58 55 52 50 49 49 48 50 43 45
26 30 22 18 13 13 19 19 13 11 10 8 8 11 14 20 28 39 43 42 40 42 47 50 53 56 61 62 65 66 63 60 62 60 60 61 62 61 60 59 58 58 57 55 53 53 53 48 48
21 13 8 13 16 17 14 13 17 12 10 7 4 4 9 19 29 39 41 39 37 32 38 44 47 51 56 61 63 63 61 59 62 64 64 63 61 59 60 60 60 58 57 57 57 56 55 55 47
10 7 15 19 5 5 5 5 16 19 17 17 14 10 2 12 25 36 38 39 36 28 29 35 40 44 50 56 61 64 64 65 65 65 64 63 63 63 62 60 60 59 58 56 56 54 55 53 52
9 6 9 6 8 4 3 3 9 13 22 24 25 16 9 3 23 33 33 35 29 25 21 27 32 37 44 52 59 62 61 62 64 65 65 65 65 65 65 66 66 63 61 58 56 55 54 54 51
16 9 7 5 2 3 3 4 9 13 19 22 32 25 18 10 14 33 32 30 27 24 17 21 25 31 37 44 52 58 60 63 66 68 71 74 73 70 66 65 65 67 67 66 63 58 56 55 53
3 4 1 3 3 2 4 5 8 12 13 18 36 31 23 14 13 30 31 30 26 23 19 22 26 30 35 42 51 56 61 63 64 67 71 75 79 78 76 73 68 66 66 66 66 65 62 57 55
6 1 3 5 3 3 2 9 2 3 12 14 22 24 22 21 14 24 24 23 23 23 23 24 26 30 34 40 48 53 58 62 62 64 67 73 77 77 75 76 76 73 70 68 65 63 63 63 60
4 2 4 12 2 4 0 7 10 10 17 19 23 26 29 25 20 22 20 19 22 25 25 24 25 29 31 36 44 50 56 60 63 62 65 72 76 75 74 74 76 77 77 73 69 66 62 62 62
5 13 2 2 2 6 3 9 5 19 28 27 32 37 35 30 32 24 27 22 21 22 23 24 26 30 33 35 43 49 56 62 65 64 66 73 73 73 76 78 79 78 77 76 73 69 65 64 60
4 4 9 6 4 4 6 5 7 17 19 26 38 38 34 32 35 38 36 26 23 21 24 26 28 32 37 38 45 51 57 63 67 66 68 74 74 74 77 77 78 81 80 76 75 71 68 65 64
2 2 3 4 6 2 3 12 8 9 12 20 26 27 28 31 34 39 36 31 29 29 30 29 31 38 41 43 48 54 58 64 69 70 72 77 76 78 77 79 84 85 83 77 74 72 69 67 64
Wind_Direction_500mb
17 353 50 154 212 172 87 60 38 28 65 38 58 76 98 49 360 65 337 9 122 169 155 220 196 178 177 162 144 144 135 106 68 57 44 46 54 62 89 140 138 132 184 224 231 243 216 166 154
315 156 46 333 231 173 100 26 25 8 337 306 54 67 51 74 22 332 26 56 74 57 200 176 164 163 154 155 154 144 141 101 62 34 15 5 3 3 32 176 169 169 151 208 260 260 219 184 175
198 44 61 19 14 98 104 18 338 327 10 24 104 51 41 348 353 350 1 16 75 70 188 173 164 152 144 163 169 157 154 115 39 17 14 7 5 357 349 266 204 190 195 175 222 244 221 201 197
135 59 76 61 72 42 35 356 340 343 41 40 82 72 85 21 358 355 7 47 78 104 182 183 138 152 143 138 164 172 323 352 3 4 1 1 1 5 2 350 263 219 211 216 226 235 216 208 219
99 71 72 97 60 78 45 21 25 40 60 33 113 83 69 9 27 31 41 62 77 151 167 175 165 154 150 158 135 321 327 339 12 5 2 358 356 357 358 4 2 329 255 231 228 232 218 223 233
73 78 110 133 121 38 40 31 40 42 42 17 64 82 57 3 36 47 56 65 77 105 129 173 174 171 171 165 161 161 49 350 353 347 345 349 352 351 351 349 349 341 330 315 271 221 234 243 250
95 77 105 123 125 69 30 19 29 37 41 28 37 74 41 29 36 52 60 69 70 95 110 189 189 167 167 178 184 200 227 159 353 344 341 341 341 341 338 334 328 326 324 313 290 267 262 260 262
93 79 122 85 135 70 38 65 51 50 40 57 52 39 16 19 41 57 61 64 71 71 99 116 72 135 185 198 203 220 228 246 267 283 319 329 332 333 330 327 318 307 295 288 283 280 277 273 270
98 86 92 122 118 129 100 88 70 69 73 68 73 70 55 55 50 57 53 61 63 66 69 67 68 60 105 181 200 222 228 247 261 274 286 302 320 320 323 319 314 305 298 292 286 280 278 277 277
45 61 33 90 93 89 70 82 80 67 49 54 55 55 58 60 55 53 48 52 48 52 53 54 57 62 64 79 87 227 227 241 251 261 266 270 269 263 290 306 308 307 303 297 292 287 284 281 276
37 69 96 95 101 93 82 59 58 78 49 39 35 34 45 56 58 55 56 52 50 45 49 46 44 48 51 62 61 57 29 24 246 242 273 267 279 285 291 286 288 301 299 297 296 291 287 284 280
104 59 64 88 90 82 71 83 64 61 64 63 55 53 55 57 57 57 55 52 51 51 47 46 48 41 36 33 44 44 45 37 42 12 256 277 285 275 277 283 284 282 292 293 290 286 284 283 281
70 87 73 89 88 86 86 73 69 53 56 51 67 71 61 59 62 60 56 57 54 50 50 48 45 49 45 47 39 41 40 40 35 24 31 34 24 338 311 294 283 272 271 275 277 282 284 282 280
105 93 83 80 79 77 76 54 67 41 61 65 61 64 64 62 61 60 52 50 48 49 48 45 42 45 43 41 41 37 39 38 37 39 39 28 18 359 1 347 325 286 265 276 272 275 277 278 280
106 86 67 23 55 145 326 40 53 60 73 69 64 60 58 58 58 56 51 49 46 45 43 45 47 43 41 42 43 40 35 36 34 30 29 28 29 29 7 347 343 340 321 284 274 273 271 270 274
157 101 87 30 24 28 209 80 67 67 72 69 68 63 60 56 55 53 49 47 44 41 43 44 43 45 46 46 42 39 37 35 31 28 24 19 16 15 14 10 6 354 326 317 322 304 290 278 270
34 90 77 82 34 74 81 127 119 81 75 67 62 61 59 56 54 51 46 41 38 37 37 38 38 40 44 45 45 43 39 37 35 31 28 23 16 13 7 2 360 356 354 349 324 308 307 306 291
103 103 66 69 47 88 97 117 125 88 81 74 65 62 60 53 46 46 41 36 35 34 35 35 34 34 34 35 36 36 36 35 33 30 26 22 21 17 14 9 2 353 348 345 345 341 340 312 302
100 98 99 101 107 69 105 118 119 111 96 88 71 63 59 53 46 39 32 29 34 34 33 33 32 32 31 29 28 27 26 25 25 23 20 19 18 15 12 9 6 3 357 350 342 337 334 334 331
95 104 98 85 88 104 138 128 145 157 131 125 101 74 53 46 38 30 25 25 27 30 31 31 32 29 28 26 23 21 19 18 17 15 13 12 10 9 8 7 5 2 360 358 353 347 338 334 345
53 84 131 125 110 86 151 164 184 180 169 171 168 118 53 37 31 21 21 21 21 23 27 26 27 25 23 20 18 16 15 14 9 9 7 6 4 3 2 0 359 358 357 356 356 355 350 340 334
74 10 117 124 171 138 281 156 209 191 198 211 209 204 128 34 26 16 15 12 11 13 19 20 19 19 17 14 15 15 15 14 11 8 3 360 358 356 354 352 351 350 349 348 349 348 348 344 337
104 132 114 69 83 181 64 249 121 196 222 215 215 215 206 33 24 10 5 3 6 5 5 11 11 9 10 10 11 11 11 9 5 3 1 360 357 354 349 346 344 344 343 341 339 338 340 340 337
128 124 96 94 110 234 151 295 175 188 224 212 211 216 217 241 347 358 356 356 358 355 346 351 356 359 0 4 5 5 3 1 358 357 357 355 352 350 347 342 339 338 336 334 332 331 331 329 328
190 181 219 198 222 23 116 257 292 200 210 221 205 209 215 238 305 342 349 351 355 354 342 335 342 348 350 354 358 358 358 356 354 353 352 350 348 346 343 340 337 332 330 329 326 324 324 323 320
60 184 321 303 279 349 86 235 149 196 217 231 209 207 217 235 272 329 336 343 347 344 333 326 330 336 340 344 348 350 352 351 349 347 346 345 343 341 338 336 333 331 328 325 322 318 317 317 315
135 87 100 106 126 266 283 257 219 222 219 208 203 212 226 234 247 323 322 330 336 338 331 318 317 326 328 332 338 341 345 345 344 342 342 340 338 336 334 332 330 328 325 323 320 317 313 311 311
4 130 135 75 315 282 227 265 245 209 219 208 217 224 233 237 245 306 319 313 321 333 336 324 315 319 322 322 327 330 335 338 339 337 335 335 333 332 331 329 328 327 324 322 318 315 312 309 307
175 162 68 100 333 278 302 254 184 198 199 203 219 228 235 240 260 267 306 295 302 317 331 335 323 317 318 317 320 323 326 331 331 331 331 331 329 328 327 326 326 325 322 320 316 313 310 307 304
287 252 272 209 185 65 343 272 186 193 186 211 230 239 244 250 273 277 293 288 291 297 312 325 329 326 321 314 313 317 321 325 325 326 328 329 327 326 325 323 323 321 319 315 313 310 308 306 302
Wind_Speed_850mb
12 8 5 2 9 2 8 11 6 14 10 30 34 33 36 41 12 9 27 35 1 13 7 8 8 7 6 5 7 7 7 5 5 6 7 9 8 7 5 6 9 13 7 9 7 9 6 10 12
4 6 8 4 9 13 9 12 16 17 21 15 28 27 36 14 37 22 22 26 19 13 5 14 13 5 8 7 8 7 5 4 4 7 10 13 12 6 1 4 10 12 10 4 4 9 10 13 12
12 12 12 8 6 11 9 16 21 21 24 11 15 33 16 27 34 32 33 24 14 16 12 15 17 17 7 5 8 7 3 3 4 6 10 12 14 15 9 4 12 20 19 12 8 8 14 15 12
8 11 18 14 20 22 12 21 30 24 9 37 13 27 22 36 33 37 32 22 23 11 14 9 14 17 17 12 1 2 0 3 6 9 12 13 13 13 12 7 5 19 26 19 12 16 17 17 15
12 16 11 12 22 16 25 35 39 31 12 39 11 14 15 46 31 28 30 34 34 16 14 14 14 11 12 12 9 3 5 4 5 9 12 16 17 16 14 11 8 5 9 26 16 17 16 17 17
14 10 9 10 14 20 22 45 32 37 39 26 24 22 20 39 37 50 44 50 36 23 13 13 14 12 12 9 7 5 2 10 11 13 15 15 14 13 13 14 11 8 7 5 5 10 15 18 19
13 6 9 27 21 9 20 12 40 37 37 39 19 15 16 52 41 56 55 57 53 34 17 10 8 11 10 9 8 7 4 2 7 16 18 20 19 17 15 13 10 9 9 9 10 13 17 18 20
15 9 18 10 19 10 21 31 46 35 46 21 16 23 15 41 46 60 65 66 65 52 24 9 10 3 5 8 9 9 8 8 6 4 9 14 18 20 19 17 15 14 13 12 13 15 17 18 18
8 7 9 11 13 18 22 31 47 53 73 76 48 45 31 45 55 61 76 72 66 64 48 37 22 9 6 3 8 14 14 12 14 13 12 6 14 17 19 21 22 21 21 20 20 21 22 22 21
18 9 9 27 31 29 46 33 32 28 45 54 53 49 45 63 66 83 86 86 82 74 69 58 47 42 30 17 8 3 10 16 19 21 21 17 14 16 17 21 23 27 29 29 28 28 28 27 27
20 11 47 54 61 59 56 75 26 10 28 39 39 38 42 59 73 77 84 81 81 73 66 68 60 45 44 35 34 27 7 7 8 14 22 23 21 22 24 23 21 28 29 33 35 35 35 36 35
21 48 26 34 42 36 44 41 61 55 33 31 33 35 49 68 75 81 83 73 71 64 70 65 62 59 54 41 46 46 40 30 28 7 21 21 17 29 30 33 35 30 32 37 35 36 42 44 44
35 43 55 66 70 66 67 60 41 52 39 35 46 49 50 50 69 76 71 73 70 70 63 62 58 58 58 56 53 49 47 52 40 26 27 25 25 22 26 28 39 42 45 44 42 41 45 46 49
37 52 40 56 57 39 51 35 14 29 32 28 34 48 57 64 66 66 72 72 72 67 67 63 58 55 44 46 43 46 46 48 47 49 47 34 27 23 25 26 20 27 41 49 53 54 52 51 48
44 36 44 32 4 11 3 44 24 16 15 26 33 37 47 54 59 67 65 68 66 67 65 63 58 56 56 52 46 43 45 44 43 44 45 44 44 41 33 28 28 25 23 38 52 58 62 62 63
6 8 10 30 7 13 3 12 16 13 21 28 30 33 40 45 50 60 62 63 62 62 63 58 59 58 57 56 55 53 51 51 50 49 46 43 40 39 37 35 36 37 32 30 28 38 47 55 60
15 14 18 12 24 8 9 17 7 11 19 25 27 30 34 37 47 56 59 60 61 60 59 60 59 58 58 58 60 59 59 60 59 56 54 51 48 46 43 41 40 39 38 38 35 35 34 40 57
9 13 20 19 23 37 37 27 16 14 19 20 20 23 28 32 37 44 49 52 53 54 56 57 59 59 60 61 61 61 61 63 62 61 61 59 59 57 53 49 45 43 43 42 42 40 39 38 43
23 28 27 14 4 21 26 24 15 11 15 15 15 20 25 30 32 38 42 43 45 49 52 56 57 60 61 64 65 64 63 61 60 61 61 60 60 59 59 58 55 52 50 49 49 48 50 43 45
26 30 22 18 13 13 19 19 13 11 10 8 8 11 14 20 28 39 43 42 40 42 47 50 53 56 61 62 65 66 63 60 62 60 60 61 62 61 60 59 58 58 57 55 53 53 53 48 48
21 13 8 13 16 17 14 13 17 12 10 7 4 4 9 19 29 39 41 39 37 32 38 44 47 51 56 61 63 63 61 59 62 64 64 63 61 59 60 60 60 58 57 57 57 56 55 55 47
10 7 15 19 5 5 5 5 16 19 17 17 14 10 2 12 25 36 38 39 36 28 29 35 40 44 50 56 61 64 64 65 65 65 64 63 63 63 62 60 60 59 58 56 56 54 55 53 52
9 6 9 6 8 4 3 3 9 13 22 24 25 16 9 3 23 33 33 35 29 25 21 27 32 37 44 52 59 62 61 62 64 65 65 65 65 65 65 66 66 63 61 58 56 55 54 54 51
16 9 7 5 2 3 3 4 9 13 19 22 32 25 18 10 14 33 32 30 27 24 17 21 25 31 37 44 52 58 60 63 66 68 71 74 73 70 66 65 65 67 67 66 63 58 56 55 53
3 4 1 3 3 2 4 5 8 12 13 18 36 31 23 14 13 30 31 30 26 23 19 22 26 30 35 42 51 56 61 63 64 67 71 75 79 78 76 73 68 66 66 66 66 65 62 57 55
6 1 3 5 3 3 2 9 2 3 12 14 22 24 22 21 14 24 24 23 23 23 23 24 26 30 34 40 48 53 58 62 62 64 67 73 77 77 75 76 76 73 70 68 65 63 63 63 60
4 2 4 12 2 4 0 7 10 10 17 19 23 26 29 25 20 22 20 19 22 25 25 24 25 29 31 36 44 50 56 60 63 62 65 72 76 75 74 74 76 77 77 73 69 66 62 62 62
5 13 2 2 2 6 3 9 5 19 28 27 32 37 35 30 32 24 27 22 21 22 23 24 26 30 33 35 43 49 56 62 65 64 66 73 73 73 76 78 79 78 77 76 73 69 65 64 60
4 4 9 6 4 4 6 5 7 17 19 26 38 38 34 32 35 38 36 26 23 21 24 26 28 32 37 38 45 51 57 63 67 66 68 74 74 74 77 77 78 81 80 76 75 71 68 65 64
2 2 3 4 6 2 3 12 8 9 12 20 26 27 28 31 34 39 36 31 29 29 30 29 31 38 41 43 48 54 58 64 69 70 72 77 76 78 77 79 84 85 83 77 74 72 69 67 64
Wind_Direction_850mb
17 353 50 154 212 172 87 60 38 28 65 38 58 76 98 49 360 65 337 9 122 169 155 220 196 178 177 162 144 144 135 106 68 57 44 46 54 62 89 140 138 132 184 224 231 243 216 166 154
315 156 46 333 231 173 100 26 25 8 337 306 54 67 51 74 22 332 26 56 74 57 200 176 164 163 154 155 154 144 141 101 62 34 15 5 3 3 32 176 169 169 151 208 260 260 219 184 175
198 44 61 19 14 98 104 18 338 327 10 24 104 51 41 348 353 350 1 16 75 70 188 173 164 152 144 163 169 157 154 115 39 17 14 7 5 357 349 266 204 190 195 175 222 244 221 201 197
135 59 76 61 72 42 35 356 340 343 41 40 82 72 85 21 358 355 7 47 78 104 182 183 138 152 143 138 164 172 323 352 3 4 1 1 1 5 2 350 263 219 211 216 226 235 216 208 219
99 71 72 97 60 78 45 21 25 40 60 33 113 83 69 9 27 31 41 62 77 151 167 175 165 154 150 158 135 321 327 339 12 5 2 358 356 357 358 4 2 329 255 231 228 232 218 223 233
73 78 110 133 121 38 40 31 40 42 42 17 64 82 57 3 36 47 56 65 77 105 129 173 174 171 171 165 161 161 49 350 353 347 345 349 352 351 351 349 349 341 330 315 271 221 234 243 250
95 77 105 123 125 69 30 19 29 37 41 28 37 74 41 29 36 52 60 69 70 95 110 189 189 167 167 178 184 200 227 159 353 344 341 341 341 341 338 334 328 326 324 313 290 267 262 260 262
93 79 122 85 135 70 38 65 51 50 40 57 52 39 16 19 41 57 61 64 71 71 99 116 72 135 185 198 203 220 228 246 267 283 319 329 332 333 330 327 318 307 295 288 283 280 277 273 270
98 86 92 122 118 129 100 88 70 69 73 68 73 70 55 55 50 57 53 61 63 66 69 67 68 60 105 181 200 222 228 247 261 274 286 302 320 320 323 319 314 305 298 292 286 280 278 277 277
45 61 33 90 93 89 70 82 80 67 49 54 55 55 58 60 55 53 48 52 48 52 53 54 57 62 64 79 87 227 227 241 251 261 266 270 269 263 290 306 308 307 303 297 292 287 284 281 276
37 69 96 95 101 93 82 59 58 78 49 39 35 34 45 56 58 55 56 52 50 45 49 46 44 48 51 62 61 57 29 24 246 242 273 267 279 285 291 286 288 301 299 297 296 291 287 284 280
104 59 64 88 90 82 71 83 64 61 64 63 55 53 55 57 57 57 55 52 51 51 47 46 48 41 36 33 44 44 45 37 42 12 256 277 285 275 277 283 284 282 292 293 290 286 284 283 281
70 87 73 89 88 86 86 73 69 53 56 51 67 71 61 59 62 60 56 57 54 50 50 48 45 49 45 47 39 41 40 40 35 24 31 34 24 338 311 294 283 272 271 275 277 282 284 282 280
105 93 83 80 79 77 76 54 67 41 61 65 61 64 64 62 61 60 52 50 48 49 48 45 42 45 43 41 41 37 39 38 37 39 39 28 18 359 1 347 325 286 265 276 272 275 277 278 280
106 86 67 23 55 145 326 40 53 60 73 69 64 60 58 58 58 56 51 49 46 45 43 45 47 43 41 42 43 40 35 36 34 30 29 28 29 29 7 347 343 340 321 284 274 273 271 270 274
157 101 87 30 24 28 209 80 67 67 72 69 68 63 60 56 55 53 49 47 44 41 43 44 43 45 46 46 42 39 37 35 31 28 24 19 16 15 14 10 6 354 326 317 322 304 290 278 270
34 90 77 82 34 74 81 127 119 81 75 67 62 61 59 56 54 51 46 41 38 37 37 38 38 40 44 45 45 43 39 37 35 31 28 23 16 13 7 2 360 356 354 349 324 308 307 306 291
103 103 66 69 47 88 97 117 125 88 81 74 65 62 60 53 46 46 41 36 35 34 35 35 34 34 34 35 36 36 36 35 33 30 26 22 21 17 14 9 2 353 348 345 345 341 340 312 302
100 98 99 101 107 69 105 118 119 111 96 88 71 63 59 53 46 39 32 29 34 34 33 33 32 32 31 29 28 27 26 25 25 23 20 19 18 15 12 9 6 3 357 350 342 337 334 334 331
95 104 98 85 88 104 138 128 145 157 131 125 101 74 53 46 38 30 25 25 27 30 31 31 32 29 28 26 23 21 19 18 17 15 13 12 10 9 8 7 5 2 360 358 353 347 338 334 345
53 84 131 125 110 86 151 164 184 180 169 171 168 118 53 37 31 21 21 21 21 23 27 26 27 25 23 20 18 16 15 14 9 9 7 6 4 3 2 0 359 358 357 356 356 355 350 340 334
74 10 117 124 171 138 281 156 209 191 198 211 209 204 128 34 26 16 15 12 11 13 19 20 19 19 17 14 15 15 15 14 11 8 3 360 358 356 354 352 351 350 349 348 349 348 348 344 337
104 132 114 69 83 181 64 249 121 196 222 215 215 215 206 33 24 10 5 3 6 5 5 11 11 9 10 10 11 11 11 9 5 3 1 360 357 354 349 346 344 344 343 341 339 338 340 340 337
128 124 96 94 110 234 151 295 175 188 224 212 211 216 217 241 347 358 356 356 358 355 346 351 356 359 0 4 5 5 3 1 358 357 357 355 352 350 347 342 339 338 336 334 332 331 331 329 328
190 181 219 198 222 23 116 257 292 200 210 221 205 209 215 238 305 342 349 351 355 354 342 335 342 348 350 354 358 358 358 356 354 353 352 350 348 346 343 340 337 332 330 329 326 324 324 323 320
60 184 321 303 279 349 86 235 149 196 217 231 209 207 217 235 272 329 336 343 347 344 333 326 330 336 340 344 348 350 352 351 349 347 346 345 343 341 338 336 333 331 328 325 322 318 317 317 315
135 87 100 106 126 266 283 257 219 222 219 208 203 212 226 234 247 323 322 330 336 338 331 318 317 326 328 332 338 341 345 345 344 342 342 340 338 336 334 332 330 328 325 323 320 317 313 311 311
4 130 135 75 315 282 227 265 245 209 219 208 217 224 233 237 245 306 319 313 321 333 336 324 315 319 322 322 327 330 335 338 339 337 335 335 333 332 331 329 328 327 324 322 318 315 312 309 307
175 162 68 100 333 278 302 254 184 198 199 203 219 228 235 240 260 267 306 295 302 317 331 335 323 317 318 317 320 323 326 331 331 331 331 331 329 328 327 326 326 325 322 320 316 313 310 307 304
287 252 272 209 185 65 343 272 186 193 186 211 230 239 244 250 273 277 293 288 291 297 312 325 329 326 321 314 313 317 321 325 325 326 328 329 327 326 325 323 323 321 319 315 313 310 308 306 302